Home   Weather   Qaanaaq   Past weeks

Flag for Greenland Past Weather in Qaanaaq, Greenland — Yesterday and Last 2 Weeks

Now
21 °F

Clear.


Feels Like: 9 °F
Forecast: 20 / 26 °F
Wind: 12 mph from East

Location: Thule A. B.

Current Time: Sep 25, 2016 at 3:27:52 AM

Latest Report: Sep 25, 2016 at 2:58 AM


Visibility: N/A

Pressure: 29.92 "Hg

Humidity: 68%

Dew Point: 12 °F

Location of QaanaaqLocation

Past Weather in Qaanaaq — Graph

°F

Qaanaaq Temperature Yesterday

Maximum temperature yesterday: 30 °F (at 4:58 PM)
Minimum temperature yesterday: 17 °F (at 5:58 AM)
Average temperature yesterday: 23 °F

High & Low Weather Summary for the Past Weeks

 TemperatureHumidityPressure
High36 °F (Sep 14, 10:58 AM)93% (Sep 15, 9:58 PM)29.99 "Hg (Sep 15, 9:58 PM)
Low5 °F (Sep 17, 10:58 PM)47% (Sep 13, 8:03 PM)29.15 "Hg (Sep 14, 3:58 PM)
Average25 °F76%29.66 "Hg
* Reported Sep 10 1:58 AM — Sep 25 1:58 AM, Qaanaaq, Weather by CustomWeather, © 2016

Note: Actual official high and low records may vary slightly from our data, if they occured in-between our weather recording intervals... More about our weather records

Advertising

Qaanaaq Weather History for the Previous 24 Hours

Scroll right to see more
 ConditionsComfort  
Time TempWeatherWind HumidityBarometerVisibility
1:58 AM
Sun, Sep 25
23 °FClear.6 mph63%29.93 "HgN/A
12:58 AM21 °FClear.9 mph68%29.93 "HgN/A
11:58 PM
Sat, Sep 24
21 °FClear.12 mph74%29.94 "HgN/A
10:58 PM27 °FClear.6 mph54%29.95 "HgN/A
9:58 PM23 °FClear.12 mph68%29.95 "HgN/A
8:58 PM25 °FSunny.9 mph69%29.95 "HgN/A
7:58 PM27 °FSunny.7 mph69%29.97 "HgN/A
6:58 PM28 °FSunny.5 mph69%29.97 "HgN/A
5:58 PM30 °FOvercast.6 mph69%29.96 "HgN/A
4:58 PM30 °FPartly sunny.6 mph55%29.97 "HgN/A
3:58 PM28 °FScattered clouds.6 mph59%29.97 "HgN/A
2:58 PM28 °FSunny.9 mph59%29.97 "HgN/A
1:58 PM25 °FPassing clouds.6 mph74%29.97 "HgN/A
12:58 PM25 °FSunny.6 mph69%29.97 "HgN/A
11:58 AM23 °FSunny.3 mph68%29.97 "HgN/A
10:58 AM20 °FSunny.8 mph68%29.96 "HgN/A
9:58 AM18 °FSunny.6 mph73%29.95 "HgN/A
8:58 AM19 °FClear.12 mph68%29.95 "HgN/A
7:58 AM18 °FClear.7 mph73%29.94 "HgN/A
6:58 AM18 °FPassing clouds.9 mph73%29.94 "HgN/A
5:58 AM17 °FClear.6 mph73%29.93 "HgN/A
4:58 AM18 °FClear.10 mph79%29.92 "HgN/A
3:58 AM18 °FClear.7 mph79%29.92 "HgN/A
Weather by CustomWeather, © 2016

See weather overviewHow to use our weather pages